AL, 02, 1883082400,   , BEST,   0, 227N,  585W,  70,     , HU, , , , , , , , , , , , , ,    UNNAMED
AL, 02, 1883082406,   , BEST,   0, 230N,  598W,  70,     , HU, , , , , , , , , , , , , ,    UNNAMED
AL, 02, 1883082412,   , BEST,   0, 235N,  609W,  70,     , HU, , , , , , , , , , , , , ,    UNNAMED
AL, 02, 1883082418,   , BEST,   0, 240N,  620W,  70,     , HU, , , , , , , , , , , , , ,    UNNAMED
AL, 02, 1883082500,   , BEST,   0, 244N,  629W,  70,     , HU, , , , , , , , , , , , , ,    UNNAMED
AL, 02, 1883082506,   , BEST,   0, 247N,  637W,  70,     , HU, , , , , , , , , , , , , ,    UNNAMED
AL, 02, 1883082512,   , BEST,   0, 252N,  644W,  70,     , HU, , , , , , , , , , , , , ,    UNNAMED
AL, 02, 1883082518,   , BEST,   0, 257N,  651W,  70,     , HU, , , , , , , , , , , , , ,    UNNAMED
AL, 02, 1883082600,   , BEST,   0, 263N,  659W,  80,     , HU, , , , , , , , , , , , , ,    UNNAMED
AL, 02, 1883082606,   , BEST,   0, 267N,  664W,  80,     , HU, , , , , , , , , , , , , ,    UNNAMED
AL, 02, 1883082612,   , BEST,   0, 272N,  668W,  80,     , HU, , , , , , , , , , , , , ,    UNNAMED
AL, 02, 1883082618,   , BEST,   0, 277N,  671W,  80,     , HU, , , , , , , , , , , , , ,    UNNAMED
AL, 02, 1883082700,   , BEST,   0, 283N,  675W,  90,     , HU, , , , , , , , , , , , , ,    UNNAMED
AL, 02, 1883082706,   , BEST,   0, 289N,  678W,  90,     , HU, , , , , , , , , , , , , ,    UNNAMED
AL, 02, 1883082712,   , BEST,   0, 294N,  680W,  90,     , HU, , , , , , , , , , , , , ,    UNNAMED
AL, 02, 1883082718,   , BEST,   0, 303N,  683W,  90,     , HU, , , , , , , , , , , , , ,    UNNAMED
AL, 02, 1883082800,   , BEST,   0, 311N,  685W, 100,     , HU, , , , , , , , , , , , , ,    UNNAMED
AL, 02, 1883082806,   , BEST,   0, 319N,  686W, 100,     , HU, , , , , , , , , , , , , ,    UNNAMED
AL, 02, 1883082812,   , BEST,   0, 330N,  686W, 110,     , HU, , , , , , , , , , , , , ,    UNNAMED
AL, 02, 1883082818,   , BEST,   0, 340N,  688W, 110,     , HU, , , , , , , , , , , , , ,    UNNAMED
AL, 02, 1883082900,   , BEST,   0, 357N,  685W, 110,     , HU, , , , , , , , , , , , , ,    UNNAMED
AL, 02, 1883082906,   , BEST,   0, 374N,  675W, 100,     , HU, , , , , , , , , , , , , ,    UNNAMED
AL, 02, 1883082912,   , BEST,   0, 388N,  663W,  90,     , HU, , , , , , , , , , , , , ,    UNNAMED
AL, 02, 1883082918,   , BEST,   0, 405N,  640W,  90,     , HU, , , , , , , , , , , , , ,    UNNAMED
AL, 02, 1883083000,   , BEST,   0, 420N,  615W,  80,     , HU, , , , , , , , , , , , , ,    UNNAMED
AL, 02, 1883083006,   , BEST,   0, 435N,  589W,  80,     , HU, , , , , , , , , , , , , ,    UNNAMED
AL, 02, 1883083012,   , BEST,   0, 450N,  562W,  70,  983, HU, , , , , , , , , , , , , ,    UNNAMED
AL, 02, 1883083018,   , BEST,   0, 465N,  512W,  70,     , HU, , , , , , , , , , , , , ,    UNNAMED
AL, 02, 1883083100,   , BEST,   0, 482N,  464W,  70,     , EX, , , , , , , , , , , , , ,    UNNAMED
AL, 02, 1883083106,   , BEST,   0, 499N,  407W,  70,     , EX, , , , , , , , , , , , , ,    UNNAMED
AL, 02, 1883083112,   , BEST,   0, 510N,  350W,  70,     , EX, , , , , , , , , , , , , ,    UNNAMED
AL, 02, 1883083118,   , BEST,   0, 514N,  309W,  70,     , EX, , , , , , , , , , , , , ,    UNNAMED
AL, 02, 1883090100,   , BEST,   0, 518N,  262W,  70,     , EX, , , , , , , , , , , , , ,    UNNAMED
AL, 02, 1883090106,   , BEST,   0, 519N,  212W,  70,     , EX, , , , , , , , , , , , , ,    UNNAMED
AL, 02, 1883090112,   , BEST,   0, 520N,  172W,  80,     , EX, , , , , , , , , , , , , ,    UNNAMED
AL, 02, 1883090118,   , BEST,   0, 520N,  139W,  80,     , EX, , , , , , , , , , , , , ,    UNNAMED
AL, 02, 1883090200,   , BEST,   0, 520N,  107W,  80,     , EX, , , , , , , , , , , , , ,    UNNAMED
AL, 02, 1883090206,   , BEST,   0, 520N,   72W,  80,  963, EX, , , , , , , , , , , , , ,    UNNAMED
AL, 02, 1883090212,   , BEST,   0, 520N,   35W,  80,     , EX, , , , , , , , , , , , , ,    UNNAMED
AL, 02, 1883090218,   , BEST,   0, 519N,    2W,  80,     , EX, , , , , , , , , , , , , ,    UNNAMED
